This is the latest recevied weather packets stored in our database for station/object N5AJY. If no packets are shown the sender has not sent any weather packets the latest 10 day(s).
| Time | Temp. | Humidity | Pressure | Rain* | Wind** | Luminosity | Snow |
|---|---|---|---|---|---|---|---|
| 1777045903 | 18.33° C | 96% | 1003.9 hPa | 0 mm | - | - | - |
| 1777045602 | 17.78° C | 96% | 1003.9 hPa | 0 mm | - | - | - |
| 1777045002 | 18.33° C | 97% | 1003.8 hPa | 0 mm | - | - | - |
| 1777044704 | 18.33° C | 97% | 1003.9 hPa | 0 mm | - | - | - |
| 1777044402 | 17.78° C | 97% | 1004 hPa | 0 mm | - | - | - |
| 1777044103 | 17.78° C | 97% | 1003.9 hPa | 0 mm | - | - | - |
| 1777043802 | 17.78° C | 97% | 1003.8 hPa | 0 mm | - | - | - |
| 1777043202 | 17.22° C | 97% | 1003.5 hPa | 0 mm | - | - | - |
| 1777042903 | 17.22° C | 97% | 1003.5 hPa | 0 mm | - | - | - |
| 1777042602 | 17.78° C | 97% | 1003.4 hPa | 0 mm | - | - | - |
| 1777042303 | 17.78° C | 98% | 1003.3 hPa | 0 mm | - | - | - |
| 1777042002 | 17.22° C | 98% | 1003.4 hPa | 0 mm | - | - | - |
| 1777041703 | 16.67° C | 98% | 1003.4 hPa | 0 mm | - | - | - |
| 1777041402 | 16.67° C | 98% | 1003.3 hPa | 0 mm | - | - | - |
| 1777041110 | 16.67° C | 98% | 1003.4 hPa | 0 mm | - | - | - |
| 1777040802 | 16.67° C | 98% | 1003.3 hPa | 0 mm | - | - | - |
| 1777040507 | 16.67° C | 98% | 1003.1 hPa | 0 mm | - | - | - |
| 1777040204 | 16.67° C | 98% | 1003.2 hPa | 0 mm | - | - | - |
| 1777039603 | 16.11° C | 98% | 1003.3 hPa | 0 mm | - | - | - |
| 1777039003 | 16.11° C | 98% | 1003.1 hPa | 0 mm | - | - | - |
| 1777038403 | 16.11° C | 98% | 1002.3 hPa | 0 mm | - | - | - |
| 1777038102 | 16.11° C | 98% | 1002.1 hPa | 0 mm | - | - | - |
| 1777037803 | 15.56° C | 98% | 1002.1 hPa | 0 mm | - | - | - |
| 1777037203 | 15.56° C | 98% | 1002.1 hPa | 0 mm | - | - | - |
| 1777036904 | 15.56° C | 98% | 1002.1 hPa | 0 mm | - | - | - |
* Rain latest hour (hover to see other rain measurements)
** Current wind speed in m/s (hover to see current wind gust speed)